Time,TemperatureF,DewpointF,PressureIn,WindDirection,WindDirectionDegrees,WindSpeedMPH,WindSpeedGustMPH,Humidity,HourlyPrecipIn,Conditions,Clouds,dailyrainin,SolarRadiationWatts/m^2,SoftwareType,DateUTC
2013-07-01 00:00:00,62.8,58.9,29.97,NNW,340,0.0,0.0,87,0.00,,,0.00,0,Wunderground v.1.15,2013-07-01 05:00:00,
2013-07-01 00:10:00,62.5,58.6,29.97,NNW,338,0.0,0.0,87,0.00,,,0.00,0,Wunderground v.1.15,2013-07-01 05:10:00,
2013-07-01 00:15:00,62.3,58.4,29.97,NNW,338,0.0,0.0,87,0.00,,,0.00,0,Wunderground v.1.15,2013-07-01 05:15:00,
2013-07-01 00:20:00,62.2,58.3,29.97,NNW,338,0.0,0.0,87,0.00,,,0.00,0,Wunderground v.1.15,2013-07-01 05:20:00,
2013-07-01 00:25:00,62.1,58.2,29.97,NNW,338,0.0,1.0,87,0.00,,,0.00,0,Wunderground v.1.15,2013-07-01 05:25:00,
2013-07-01 00:35:00,61.8,57.9,29.97,NNW,339,0.0,0.0,87,0.00,,,0.00,0,Wunderground v.1.15,2013-07-01 05:35:00,
2013-07-01 00:40:00,61.6,57.7,29.97,NNW,339,0.0,0.0,87,0.00,,,0.00,0,Wunderground v.1.15,2013-07-01 05:40:00,
2013-07-01 00:45:00,61.5,57.6,29.97,NNW,339,0.0,0.0,87,0.00,,,0.00,0,Wunderground v.1.15,2013-07-01 05:45:00,
2013-07-01 00:50:00,61.4,57.5,29.97,NNW,339,0.0,0.0,87,0.00,,,0.00,0,Wunderground v.1.15,2013-07-01 05:50:00,
2013-07-01 00:55:00,61.3,57.1,29.97,NNW,339,1.0,1.0,86,0.00,,,0.00,0,Wunderground v.1.15,2013-07-01 05:55:00,
2013-07-01 01:00:00,61.3,57.1,29.97,NNW,339,1.0,1.0,86,0.00,,,0.00,0,Wunderground v.1.15,2013-07-01 06:00:00,
2013-07-01 01:10:00,61.2,56.7,29.97,NNW,339,0.0,0.0,85,0.00,,,0.00,0,Wunderground v.1.15,2013-07-01 06:10:00,
2013-07-01 01:15:00,61.1,56.2,29.97,NNW,339,1.0,1.0,84,0.00,,,0.00,0,Wunderground v.1.15,2013-07-01 06:15:00,
2013-07-01 01:25:00,61.1,55.9,29.97,NNW,339,1.0,3.0,83,0.00,,,0.00,0,Wunderground v.1.15,2013-07-01 06:25:00,
2013-07-01 01:30:00,61.0,55.8,29.96,NNW,339,1.0,1.0,83,0.00,,,0.00,0,Wunderground v.1.15,2013-07-01 06:30:00,
2013-07-01 01:35:00,60.9,55.7,29.96,NNW,342,1.0,2.0,83,0.00,,,0.00,0,Wunderground v.1.15,2013-07-01 06:35:00,
2013-07-01 01:40:00,60.8,55.3,29.96,NNW,342,1.0,1.0,82,0.00,,,0.00,0,Wunderground v.1.15,2013-07-01 06:40:00,
2013-07-01 01:45:00,60.7,54.8,29.96,NNW,342,1.0,1.0,81,0.00,,,0.00,0,Wunderground v.1.15,2013-07-01 06:45:00,
2013-07-01 01:50:00,60.6,54.7,29.97,NNW,342,1.0,1.0,81,0.00,,,0.00,0,Wunderground v.1.15,2013-07-01 06:50:00,
2013-07-01 02:00:00,60.3,54.8,29.96,NNW,342,0.0,0.0,82,0.00,,,0.00,0,Wunderground v.1.15,2013-07-01 07:00:00,
2013-07-01 02:05:00,60.2,54.7,29.96,NNW,342,0.0,0.0,82,0.00,,,0.00,0,Wunderground v.1.15,2013-07-01 07:05:00,
2013-07-01 02:10:00,60.0,54.5,29.96,NNW,342,0.0,1.0,82,0.00,,,0.00,0,Wunderground v.1.15,2013-07-01 07:10:00,
2013-07-01 02:15:00,59.9,54.4,29.96,NNW,342,0.0,1.0,82,0.00,,,0.00,0,Wunderground v.1.15,2013-07-01 07:15:00,
2013-07-01 02:20:00,59.7,54.5,29.96,NNW,342,0.0,0.0,83,0.00,,,0.00,0,Wunderground v.1.15,2013-07-01 07:20:00,
2013-07-01 02:30:00,59.4,53.9,29.96,NNW,342,0.0,0.0,82,0.00,,,0.00,0,Wunderground v.1.15,2013-07-01 07:30:00,
2013-07-01 02:40:00,59.0,53.5,29.96,NNW,342,0.0,0.0,82,0.00,,,0.00,0,Wunderground v.1.15,2013-07-01 07:40:00,
2013-07-01 02:45:00,58.9,53.7,29.96,NNW,342,0.0,0.0,83,0.00,,,0.00,0,Wunderground v.1.15,2013-07-01 07:45:00,
2013-07-01 02:50:00,58.7,53.5,29.96,NNW,342,0.0,0.0,83,0.00,,,0.00,0,Wunderground v.1.15,2013-07-01 07:50:00,
2013-07-01 02:55:00,58.7,53.5,29.96,NNW,342,0.0,0.0,83,0.00,,,0.00,0,Wunderground v.1.15,2013-07-01 07:55:00,
2013-07-01 03:05:00,58.6,53.5,29.96,NNW,342,0.0,1.0,83,0.00,,,0.00,0,Wunderground v.1.15,2013-07-01 08:05:00,
2013-07-01 03:10:00,58.6,53.5,29.96,NNW,342,0.0,0.0,83,0.00,,,0.00,0,Wunderground v.1.15,2013-07-01 08:10:00,
2013-07-01 03:15:00,58.6,53.1,29.96,NNW,342,0.0,0.0,82,0.00,,,0.00,0,Wunderground v.1.15,2013-07-01 08:15:00,
2013-07-01 03:20:00,58.5,53.0,29.95,NNW,342,0.0,0.0,82,0.00,,,0.00,0,Wunderground v.1.15,2013-07-01 08:20:00,
2013-07-01 03:25:00,58.5,53.0,29.95,NNW,342,0.0,0.0,82,0.00,,,0.00,0,Wunderground v.1.15,2013-07-01 08:25:00,
2013-07-01 03:35:00,58.4,52.9,29.96,NNW,342,0.0,2.0,82,0.00,,,0.00,0,Wunderground v.1.15,2013-07-01 08:35:00,
2013-07-01 03:40:00,58.4,53.3,29.95,NNW,342,0.0,0.0,83,0.00,,,0.00,0,Wunderground v.1.15,2013-07-01 08:40:00,
2013-07-01 03:45:00,58.5,53.4,29.95,NNW,342,1.0,3.0,83,0.00,,,0.00,0,Wunderground v.1.15,2013-07-01 08:45:00,
2013-07-01 03:50:00,58.6,53.1,29.96,NNW,342,1.0,1.0,82,0.00,,,0.00,0,Wunderground v.1.15,2013-07-01 08:50:00,
2013-07-01 03:55:00,58.7,52.9,29.96,NNW,342,1.0,1.0,81,0.00,,,0.00,0,Wunderground v.1.15,2013-07-01 08:55:00,
2013-07-01 04:00:00,58.8,53.0,29.96,NNW,342,1.0,2.0,81,0.00,,,0.00,0,Wunderground v.1.15,2013-07-01 09:00:00,
2013-07-01 04:05:00,58.8,53.0,29.96,NNW,342,0.0,2.0,81,0.00,,,0.00,0,Wunderground v.1.15,2013-07-01 09:05:00,
2013-07-01 04:10:00,58.7,52.9,29.96,NNW,342,0.0,0.0,81,0.00,,,0.00,0,Wunderground v.1.15,2013-07-01 09:10:00,
2013-07-01 04:15:00,58.7,52.9,29.95,NNW,342,1.0,1.0,81,0.00,,,0.00,0,Wunderground v.1.15,2013-07-01 09:15:00,
2013-07-01 04:20:00,58.8,53.0,29.95,NNW,342,1.0,2.0,81,0.00,,,0.00,0,Wunderground v.1.15,2013-07-01 09:20:00,
2013-07-01 04:25:00,58.9,53.1,29.96,NNW,342,2.0,2.0,81,0.00,,,0.00,0,Wunderground v.1.15,2013-07-01 09:25:00,
2013-07-01 04:30:00,59.2,53.4,29.96,NNW,344,2.0,2.0,81,0.00,,,0.00,0,Wunderground v.1.15,2013-07-01 09:30:00,
2013-07-01 04:40:00,59.7,53.5,29.96,North,349,3.0,3.0,80,0.00,,,0.00,0,Wunderground v.1.15,2013-07-01 09:40:00,
2013-07-01 04:45:00,60.0,53.5,29.96,North,5,3.0,4.0,79,0.00,,,0.00,0,Wunderground v.1.15,2013-07-01 09:45:00,
2013-07-01 04:50:00,60.1,53.6,29.96,North,355,3.0,3.0,79,0.00,,,0.00,0,Wunderground v.1.15,2013-07-01 09:50:00,
2013-07-01 04:55:00,60.2,53.7,29.96,North,355,3.0,3.0,79,0.00,,,0.00,0,Wunderground v.1.15,2013-07-01 09:55:00,
2013-07-01 05:00:00,60.2,53.7,29.96,North,360,3.0,3.0,79,0.00,,,0.00,0,Wunderground v.1.15,2013-07-01 10:00:00,
2013-07-01 05:05:00,60.2,54.0,29.96,North,355,2.0,3.0,80,0.00,,,0.00,0,Wunderground v.1.15,2013-07-01 10:05:00,
2013-07-01 05:15:00,60.0,53.8,29.96,NNW,342,2.0,2.0,80,0.00,,,0.00,0,Wunderground v.1.15,2013-07-01 10:15:00,
2013-07-01 05:20:00,59.8,54.0,29.97,NNW,344,2.0,2.0,81,0.00,,,0.00,0,Wunderground v.1.15,2013-07-01 10:20:00,
2013-07-01 05:25:00,59.6,53.4,29.97,NNW,348,2.0,2.0,80,0.00,,,0.00,0,Wunderground v.1.15,2013-07-01 10:25:00,
2013-07-01 05:30:00,59.5,53.7,29.97,North,349,2.0,2.0,81,0.00,,,0.00,0,Wunderground v.1.15,2013-07-01 10:30:00,
2013-07-01 05:35:00,59.3,53.5,29.97,North,349,2.0,3.0,81,0.00,,,0.00,0,Wunderground v.1.15,2013-07-01 10:35:00,
2013-07-01 05:45:00,59.0,53.5,29.97,North,350,2.0,3.0,82,0.00,,,0.00,7,Wunderground v.1.15,2013-07-01 10:45:00,
2013-07-01 05:50:00,58.8,53.6,29.97,North,350,2.0,2.0,83,0.00,,,0.00,9,Wunderground v.1.15,2013-07-01 10:50:00,
2013-07-01 05:55:00,58.7,53.5,29.98,North,350,1.0,3.0,83,0.00,,,0.00,14,Wunderground v.1.15,2013-07-01 10:55:00,
2013-07-01 06:00:00,58.6,53.5,29.98,North,350,1.0,1.0,83,0.00,,,0.00,19,Wunderground v.1.15,2013-07-01 11:00:00,
2013-07-01 06:05:00,58.6,53.5,29.98,North,350,1.0,1.0,83,0.00,,,0.00,23,Wunderground v.1.15,2013-07-01 11:05:00,
2013-07-01 06:10:00,58.5,53.4,29.98,North,355,1.0,3.0,83,0.00,,,0.00,25,Wunderground v.1.15,2013-07-01 11:10:00,
2013-07-01 06:20:00,58.5,53.7,29.98,North,355,1.0,1.0,84,0.00,,,0.00,32,Wunderground v.1.15,2013-07-01 11:20:00,
2013-07-01 06:25:00,58.4,53.6,29.98,North,355,1.0,1.0,84,0.00,,,0.00,39,Wunderground v.1.15,2013-07-01 11:25:00,
2013-07-01 06:30:00,58.4,53.6,29.98,North,355,0.0,1.0,84,0.00,,,0.00,53,Wunderground v.1.15,2013-07-01 11:30:00,
2013-07-01 06:35:00,58.5,53.7,29.99,North,355,1.0,2.0,84,0.00,,,0.00,65,Wunderground v.1.15,2013-07-01 11:35:00,
2013-07-01 06:40:00,58.6,53.5,29.98,North,355,1.0,2.0,83,0.00,,,0.00,67,Wunderground v.1.15,2013-07-01 11:40:00,
2013-07-01 06:50:00,58.9,53.7,29.99,North,355,1.0,1.0,83,0.00,,,0.00,95,Wunderground v.1.15,2013-07-01 11:50:00,
2013-07-01 06:55:00,59.1,53.9,29.99,North,360,1.0,3.0,83,0.00,,,0.00,130,Wunderground v.1.15,2013-07-01 11:55:00,
2013-07-01 07:00:00,59.3,54.1,29.99,North,360,2.0,2.0,83,0.00,,,0.00,139,Wunderground v.1.15,2013-07-01 12:00:00,
2013-07-01 07:10:00,59.8,54.3,29.99,North,9,1.0,1.0,82,0.00,,,0.00,97,Wunderground v.1.15,2013-07-01 12:10:00,
2013-07-01 07:15:00,59.9,54.1,30.00,North,9,2.0,3.0,81,0.00,,,0.00,128,Wunderground v.1.15,2013-07-01 12:15:00,
2013-07-01 07:20:00,60.0,54.2,30.00,North,9,2.0,2.0,81,0.00,,,0.00,160,Wunderground v.1.15,2013-07-01 12:20:00,
2013-07-01 07:25:00,60.2,54.3,30.00,North,9,2.0,2.0,81,0.00,,,0.00,174,Wunderground v.1.15,2013-07-01 12:25:00,
2013-07-01 07:30:00,60.4,54.5,30.00,North,9,2.0,2.0,81,0.00,,,0.00,160,Wunderground v.1.15,2013-07-01 12:30:00,
2013-07-01 07:35:00,60.6,54.7,30.00,North,10,1.0,2.0,81,0.00,,,0.00,149,Wunderground v.1.15,2013-07-01 12:35:00,
2013-07-01 07:40:00,60.7,54.8,30.01,North,10,1.0,1.0,81,0.00,,,0.00,178,Wunderground v.1.15,2013-07-01 12:40:00,
2013-07-01 07:45:00,60.8,54.9,30.01,North,10,2.0,3.0,81,0.00,,,0.00,178,Wunderground v.1.15,2013-07-01 12:45:00,
2013-07-01 07:55:00,61.1,55.2,30.01,North,9,1.0,2.0,81,0.00,,,0.00,211,Wunderground v.1.15,2013-07-01 12:55:00,
2013-07-01 08:00:00,61.3,55.1,30.01,NNE,22,2.0,2.0,80,0.00,,,0.00,253,Wunderground v.1.15,2013-07-01 13:00:00,
2013-07-01 08:10:00,61.8,55.6,30.01,NNE,23,2.0,2.0,80,0.00,,,0.00,295,Wunderground v.1.15,2013-07-01 13:10:00,
2013-07-01 08:15:00,62.2,56.3,30.01,NNE,23,1.0,2.0,81,0.00,,,0.00,320,Wunderground v.1.15,2013-07-01 13:15:00,
2013-07-01 08:20:00,62.5,55.9,30.01,NNE,23,1.0,3.0,79,0.00,,,0.00,343,Wunderground v.1.15,2013-07-01 13:20:00,
2013-07-01 08:25:00,63.0,56.0,30.01,NNE,24,2.0,4.0,78,0.00,,,0.00,381,Wunderground v.1.15,2013-07-01 13:25:00,
2013-07-01 08:30:00,63.3,56.3,30.01,NNE,17,2.0,2.0,78,0.00,,,0.00,406,Wunderground v.1.15,2013-07-01 13:30:00,
2013-07-01 08:40:00,63.8,56.4,30.02,NNE,27,3.0,4.0,77,0.00,,,0.00,341,Wunderground v.1.15,2013-07-01 13:40:00,
2013-07-01 08:45:00,64.0,56.6,30.02,NNE,31,3.0,4.0,77,0.00,,,0.00,462,Wunderground v.1.15,2013-07-01 13:45:00,
2013-07-01 08:50:00,64.5,57.5,30.02,NNE,24,2.0,2.0,78,0.00,,,0.00,494,Wunderground v.1.15,2013-07-01 13:50:00,
2013-07-01 08:55:00,64.9,57.5,30.02,NE,39,2.0,3.0,77,0.00,,,0.00,524,Wunderground v.1.15,2013-07-01 13:55:00,
2013-07-01 09:00:00,65.3,57.9,30.02,North,355,3.0,3.0,77,0.00,,,0.00,564,Wunderground v.1.15,2013-07-01 14:00:00,
2013-07-01 09:10:00,66.0,57.5,30.02,North,355,3.0,3.0,74,0.00,,,0.00,606,Wunderground v.1.15,2013-07-01 14:10:00,
2013-07-01 09:15:00,66.5,58.7,30.02,North,349,3.0,3.0,76,0.00,,,0.00,613,Wunderground v.1.15,2013-07-01 14:15:00,
2013-07-01 09:20:00,66.9,58.7,30.03,NE,43,2.0,2.0,75,0.00,,,0.00,617,Wunderground v.1.15,2013-07-01 14:20:00,
2013-07-01 09:25:00,67.2,57.9,30.02,NNE,22,3.0,4.0,72,0.00,,,0.00,613,Wunderground v.1.15,2013-07-01 14:25:00,
2013-07-01 09:30:00,67.5,58.2,30.02,North,10,3.0,3.0,72,0.00,,,0.00,517,Wunderground v.1.15,2013-07-01 14:30:00,
2013-07-01 09:35:00,67.7,58.3,30.02,NNE,17,3.0,3.0,72,0.00,,,0.00,589,Wunderground v.1.15,2013-07-01 14:35:00,
2013-07-01 09:40:00,67.9,58.1,30.02,North,10,3.0,3.0,71,0.00,,,0.00,626,Wunderground v.1.15,2013-07-01 14:40:00,
2013-07-01 09:45:00,68.2,58.0,30.01,North,360,3.0,3.0,70,0.00,,,0.00,696,Wunderground v.1.15,2013-07-01 14:45:00,
2013-07-01 09:50:00,68.4,59.4,30.02,NNE,18,3.0,3.0,73,0.00,,,0.00,675,Wunderground v.1.15,2013-07-01 14:50:00,
2013-07-01 09:55:00,68.8,59.4,30.01,NNE,16,3.0,5.0,72,0.00,,,0.00,728,Wunderground v.1.15,2013-07-01 14:55:00,
2013-07-01 10:00:00,69.1,58.9,30.02,NNE,20,3.0,3.0,70,0.00,,,0.00,759,Wunderground v.1.15,2013-07-01 15:00:00,
2013-07-01 10:05:00,69.6,59.4,30.02,NNE,16,3.0,3.0,70,0.00,,,0.00,788,Wunderground v.1.15,2013-07-01 15:05:00,
2013-07-01 10:10:00,70.1,58.6,30.01,North,9,3.0,3.0,67,0.00,,,0.00,812,Wunderground v.1.15,2013-07-01 15:10:00,
2013-07-01 10:15:00,70.6,60.3,30.01,North,5,3.0,6.0,70,0.00,,,0.00,788,Wunderground v.1.15,2013-07-01 15:15:00,
2013-07-01 10:20:00,70.9,59.4,30.01,North,355,3.0,3.0,67,0.00,,,0.00,795,Wunderground v.1.15,2013-07-01 15:20:00,
2013-07-01 10:25:00,71.2,59.7,30.02,NNW,339,4.0,4.0,67,0.00,,,0.00,773,Wunderground v.1.15,2013-07-01 15:25:00,
2013-07-01 10:30:00,71.4,59.4,30.02,North,360,3.0,6.0,66,0.00,,,0.00,786,Wunderground v.1.15,2013-07-01 15:30:00,
2013-07-01 10:40:00,72.0,59.2,30.02,NNE,19,3.0,3.0,64,0.00,,,0.00,796,Wunderground v.1.15,2013-07-01 15:40:00,
2013-07-01 10:45:00,72.4,59.1,30.01,North,360,3.0,3.0,63,0.00,,,0.00,835,Wunderground v.1.15,2013-07-01 15:45:00,
2013-07-01 10:50:00,72.7,60.3,30.01,North,9,3.0,4.0,65,0.00,,,0.00,828,Wunderground v.1.15,2013-07-01 15:50:00,
2013-07-01 10:55:00,72.9,58.2,30.01,NE,44,3.0,5.0,60,0.00,,,0.00,851,Wunderground v.1.15,2013-07-01 15:55:00,
2013-07-01 11:00:00,73.0,58.8,30.01,NNE,27,4.0,4.0,61,0.00,,,0.00,904,Wunderground v.1.15,2013-07-01 16:00:00,
2013-07-01 11:10:00,73.5,60.6,30.01,NNW,331,3.0,3.0,64,0.00,,,0.00,935,Wunderground v.1.15,2013-07-01 16:10:00,
2013-07-01 11:15:00,73.8,59.0,30.01,NNE,28,3.0,7.0,60,0.00,,,0.00,867,Wunderground v.1.15,2013-07-01 16:15:00,
2013-07-01 11:20:00,73.9,59.1,30.01,NE,48,3.0,3.0,60,0.00,,,0.00,916,Wunderground v.1.15,2013-07-01 16:20:00,
2013-07-01 11:25:00,73.9,57.7,30.01,NNE,28,4.0,4.0,57,0.00,,,0.00,454,Wunderground v.1.15,2013-07-01 16:25:00,
2013-07-01 11:30:00,73.4,57.7,30.01,North,9,4.0,4.0,58,0.00,,,0.00,561,Wunderground v.1.15,2013-07-01 16:30:00,
2013-07-01 11:35:00,73.2,58.0,30.01,East,95,4.0,6.0,59,0.00,,,0.00,468,Wunderground v.1.15,2013-07-01 16:35:00,
2013-07-01 11:45:00,73.8,57.1,30.01,NNE,20,5.0,9.0,56,0.00,,,0.00,1014,Wunderground v.1.15,2013-07-01 16:45:00,
2013-07-01 11:50:00,74.1,57.9,30.01,NE,48,5.0,5.0,57,0.00,,,0.00,1016,Wunderground v.1.15,2013-07-01 16:50:00,
2013-07-01 11:55:00,74.5,58.8,30.01,NNE,17,4.0,5.0,58,0.00,,,0.00,1014,Wunderground v.1.15,2013-07-01 16:55:00,
2013-07-01 12:00:00,74.9,59.1,30.01,NNE,33,4.0,5.0,58,0.00,,,0.00,1014,Wunderground v.1.15,2013-07-01 17:00:00,
2013-07-01 12:10:00,75.1,58.3,30.01,North,5,5.0,5.0,56,0.00,,,0.00,925,Wunderground v.1.15,2013-07-01 17:10:00,
2013-07-01 12:15:00,75.3,60.0,30.01,NE,56,4.0,5.0,59,0.00,,,0.00,914,Wunderground v.1.15,2013-07-01 17:15:00,
2013-07-01 12:20:00,75.7,59.9,30.01,ENE,57,3.0,5.0,58,0.00,,,0.00,969,Wunderground v.1.15,2013-07-01 17:20:00,
2013-07-01 12:25:00,75.8,58.0,30.01,NNE,30,4.0,5.0,54,0.00,,,0.00,963,Wunderground v.1.15,2013-07-01 17:25:00,
2013-07-01 12:30:00,75.9,59.1,30.01,NNW,342,4.0,4.0,56,0.00,,,0.00,962,Wunderground v.1.15,2013-07-01 17:30:00,
2013-07-01 12:35:00,76.0,57.6,30.01,NNE,24,4.0,4.0,53,0.00,,,0.00,983,Wunderground v.1.15,2013-07-01 17:35:00,
2013-07-01 12:40:00,76.0,57.1,30.01,NE,36,4.0,6.0,52,0.00,,,0.00,942,Wunderground v.1.15,2013-07-01 17:40:00,
2013-07-01 12:50:00,75.9,58.1,30.00,North,5,5.0,5.0,54,0.00,,,0.00,991,Wunderground v.1.15,2013-07-01 17:50:00,
2013-07-01 12:55:00,76.0,58.7,30.00,North,360,6.0,6.0,55,0.00,,,0.00,977,Wunderground v.1.15,2013-07-01 17:55:00,
2013-07-01 13:00:00,76.1,58.8,30.00,ENE,71,5.0,10.0,55,0.00,,,0.00,1002,Wunderground v.1.15,2013-07-01 18:00:00,
2013-07-01 13:10:00,76.4,58.5,30.00,North,5,5.0,6.0,54,0.00,,,0.00,998,Wunderground v.1.15,2013-07-01 18:10:00,
2013-07-01 13:15:00,76.7,58.8,30.00,NNE,27,5.0,6.0,54,0.00,,,0.00,977,Wunderground v.1.15,2013-07-01 18:15:00,
2013-07-01 13:20:00,76.8,57.8,30.00,ENE,59,4.0,4.0,52,0.00,,,0.00,990,Wunderground v.1.15,2013-07-01 18:20:00,
2013-07-01 13:25:00,76.9,57.9,30.00,North,355,4.0,6.0,52,0.00,,,0.00,856,Wunderground v.1.15,2013-07-01 18:25:00,
2013-07-01 13:30:00,77.0,60.1,30.00,North,355,4.0,4.0,56,0.00,,,0.00,809,Wunderground v.1.15,2013-07-01 18:30:00,
2013-07-01 13:35:00,77.1,57.0,30.00,NNE,27,4.0,4.0,50,0.00,,,0.00,1025,Wunderground v.1.15,2013-07-01 18:35:00,
2013-07-01 13:40:00,77.4,60.0,30.00,North,5,4.0,4.0,55,0.00,,,0.00,1004,Wunderground v.1.15,2013-07-01 18:40:00,
2013-07-01 13:50:00,78.0,57.3,30.00,NE,41,4.0,6.0,49,0.00,,,0.00,1011,Wunderground v.1.15,2013-07-01 18:50:00,
2013-07-01 13:55:00,77.9,56.6,30.00,NE,51,4.0,6.0,48,0.00,,,0.00,1002,Wunderground v.1.15,2013-07-01 18:55:00,
2013-07-01 14:00:00,77.9,57.8,30.00,NE,52,5.0,5.0,50,0.00,,,0.00,976,Wunderground v.1.15,2013-07-01 19:00:00,
2013-07-01 14:10:00,78.1,57.9,30.00,North,360,5.0,12.0,50,0.00,,,0.00,802,Wunderground v.1.15,2013-07-01 19:10:00,
2013-07-01 14:15:00,78.0,56.7,30.00,NNE,13,6.0,12.0,48,0.00,,,0.00,830,Wunderground v.1.15,2013-07-01 19:15:00,
2013-07-01 14:20:00,77.8,57.1,30.00,NNE,13,6.0,8.0,49,0.00,,,0.00,962,Wunderground v.1.15,2013-07-01 19:20:00,
2013-07-01 14:30:00,78.4,58.8,30.00,North,5,4.0,4.0,51,0.00,,,0.00,842,Wunderground v.1.15,2013-07-01 19:30:00,
2013-07-01 14:35:00,78.6,56.1,29.99,North,5,3.0,6.0,46,0.00,,,0.00,693,Wunderground v.1.15,2013-07-01 19:35:00,
2013-07-01 14:40:00,78.6,56.1,29.99,NE,55,3.0,7.0,46,0.00,,,0.00,828,Wunderground v.1.15,2013-07-01 19:40:00,
2013-07-01 14:45:00,78.5,56.0,29.99,North,351,4.0,7.0,46,0.00,,,0.00,907,Wunderground v.1.15,2013-07-01 19:45:00,
2013-07-01 14:50:00,78.5,57.7,29.99,ENE,61,4.0,4.0,49,0.00,,,0.00,867,Wunderground v.1.15,2013-07-01 19:50:00,
2013-07-01 14:55:00,78.7,57.9,29.99,ENE,67,4.0,4.0,49,0.00,,,0.00,856,Wunderground v.1.15,2013-07-01 19:55:00,
2013-07-01 15:05:00,78.7,55.6,30.00,ENE,69,5.0,5.0,45,0.00,,,0.00,837,Wunderground v.1.15,2013-07-01 20:05:00,
2013-07-01 15:10:00,78.6,58.4,30.00,North,9,4.0,4.0,50,0.00,,,0.00,831,Wunderground v.1.15,2013-07-01 20:10:00,
2013-07-01 15:15:00,78.7,56.2,30.00,NE,56,4.0,4.0,46,0.00,,,0.00,847,Wunderground v.1.15,2013-07-01 20:15:00,
2013-07-01 15:20:00,78.7,55.0,30.00,ENE,71,4.0,4.0,44,0.00,,,0.00,817,Wunderground v.1.15,2013-07-01 20:20:00,
2013-07-01 15:25:00,78.5,54.1,30.00,ENE,71,4.0,4.0,43,0.00,,,0.00,772,Wunderground v.1.15,2013-07-01 20:25:00,
2013-07-01 15:35:00,78.6,56.7,30.00,ENE,61,3.0,6.0,47,0.00,,,0.00,747,Wunderground v.1.15,2013-07-01 20:35:00,
2013-07-01 15:40:00,78.5,56.6,30.00,NE,38,4.0,4.0,47,0.00,,,0.00,766,Wunderground v.1.15,2013-07-01 20:40:00,
2013-07-01 15:45:00,78.5,55.4,30.00,NE,49,4.0,4.0,45,0.00,,,0.00,751,Wunderground v.1.15,2013-07-01 20:45:00,
2013-07-01 15:50:00,78.4,54.7,29.99,NE,55,5.0,5.0,44,0.00,,,0.00,726,Wunderground v.1.15,2013-07-01 20:50:00,
2013-07-01 15:55:00,78.3,55.8,29.99,NNE,13,5.0,5.0,46,0.00,,,0.00,744,Wunderground v.1.15,2013-07-01 20:55:00,
2013-07-01 16:00:00,78.4,56.5,29.99,NNE,32,4.0,4.0,47,0.00,,,0.00,733,Wunderground v.1.15,2013-07-01 21:00:00,
2013-07-01 16:05:00,78.7,57.9,29.99,East,80,4.0,5.0,49,0.00,,,0.00,714,Wunderground v.1.15,2013-07-01 21:05:00,
2013-07-01 16:10:00,78.8,56.3,29.99,North,9,4.0,5.0,46,0.00,,,0.00,705,Wunderground v.1.15,2013-07-01 21:10:00,
2013-07-01 16:15:00,78.8,56.3,29.99,ENE,67,4.0,5.0,46,0.00,,,0.00,689,Wunderground v.1.15,2013-07-01 21:15:00,
2013-07-01 16:20:00,78.8,56.3,29.99,NE,35,4.0,8.0,46,0.00,,,0.00,693,Wunderground v.1.15,2013-07-01 21:20:00,
2013-07-01 16:25:00,78.7,56.8,29.99,ENE,58,4.0,8.0,47,0.00,,,0.00,659,Wunderground v.1.15,2013-07-01 21:25:00,
2013-07-01 16:30:00,78.7,57.9,29.99,North,5,4.0,4.0,49,0.00,,,0.00,531,Wunderground v.1.15,2013-07-01 21:30:00,
2013-07-01 16:40:00,78.7,56.8,29.99,NNE,33,4.0,5.0,47,0.00,,,0.00,650,Wunderground v.1.15,2013-07-01 21:40:00,
2013-07-01 16:45:00,78.6,57.8,29.99,North,5,4.0,5.0,49,0.00,,,0.00,615,Wunderground v.1.15,2013-07-01 21:45:00,
2013-07-01 16:50:00,78.6,57.8,29.99,North,5,4.0,11.0,49,0.00,,,0.00,547,Wunderground v.1.15,2013-07-01 21:50:00,
2013-07-01 16:55:00,78.5,57.7,29.99,NE,39,4.0,11.0,49,0.00,,,0.00,529,Wunderground v.1.15,2013-07-01 21:55:00,
2013-07-01 17:00:00,78.3,57.0,29.99,North,11,4.0,4.0,48,0.00,,,0.00,496,Wunderground v.1.15,2013-07-01 22:00:00,
2013-07-01 17:05:00,78.1,56.8,29.99,NNE,26,4.0,4.0,48,0.00,,,0.00,443,Wunderground v.1.15,2013-07-01 22:05:00,
2013-07-01 17:15:00,77.9,56.6,29.99,NE,39,5.0,9.0,48,0.00,,,0.00,464,Wunderground v.1.15,2013-07-01 22:15:00,
2013-07-01 17:20:00,77.8,56.0,29.99,NNE,28,5.0,5.0,47,0.00,,,0.00,446,Wunderground v.1.15,2013-07-01 22:20:00,
2013-07-01 17:25:00,77.8,57.7,29.99,North,360,3.0,5.0,50,0.00,,,0.00,461,Wunderground v.1.15,2013-07-01 22:25:00,
2013-07-01 17:30:00,77.8,57.7,29.99,NNE,19,3.0,6.0,50,0.00,,,0.00,338,Wunderground v.1.15,2013-07-01 22:30:00,
2013-07-01 17:35:00,77.5,57.4,29.99,NE,42,4.0,6.0,50,0.00,,,0.00,287,Wunderground v.1.15,2013-07-01 22:35:00,
2013-07-01 17:45:00,77.2,56.6,29.99,North,11,4.0,6.0,49,0.00,,,0.00,387,Wunderground v.1.15,2013-07-01 22:45:00,
2013-07-01 17:50:00,77.1,55.3,29.99,NNE,26,5.0,5.0,47,0.00,,,0.00,343,Wunderground v.1.15,2013-07-01 22:50:00,
2013-07-01 17:55:00,76.9,56.3,29.98,NE,38,5.0,5.0,49,0.00,,,0.00,311,Wunderground v.1.15,2013-07-01 22:55:00,
2013-07-01 18:00:00,76.7,56.7,29.98,North,5,4.0,4.0,50,0.00,,,0.00,257,Wunderground v.1.15,2013-07-01 23:00:00,
2013-07-01 18:05:00,76.5,56.5,29.99,ENE,59,3.0,4.0,50,0.00,,,0.00,227,Wunderground v.1.15,2013-07-01 23:05:00,
2013-07-01 18:10:00,76.3,56.8,29.99,NNE,30,2.0,4.0,51,0.00,,,0.00,213,Wunderground v.1.15,2013-07-01 23:10:00,
2013-07-01 18:20:00,75.9,57.0,29.99,NNE,32,2.0,3.0,52,0.00,,,0.00,179,Wunderground v.1.15,2013-07-01 23:20:00,
2013-07-01 18:25:00,75.7,56.8,29.99,NE,40,2.0,3.0,52,0.00,,,0.00,171,Wunderground v.1.15,2013-07-01 23:25:00,
2013-07-01 18:30:00,75.5,57.2,29.99,NNE,19,2.0,2.0,53,0.00,,,0.00,192,Wunderground v.1.15,2013-07-01 23:30:00,
2013-07-01 18:35:00,75.4,57.6,29.99,NNE,14,1.0,3.0,54,0.00,,,0.00,163,Wunderground v.1.15,2013-07-01 23:35:00,
2013-07-01 18:40:00,75.2,57.9,29.99,NNE,14,1.0,2.0,55,0.00,,,0.00,144,Wunderground v.1.15,2013-07-01 23:40:00,
2013-07-01 18:50:00,74.7,56.9,29.99,NNE,26,2.0,2.0,54,0.00,,,0.00,102,Wunderground v.1.15,2013-07-01 23:50:00,
2013-07-01 18:55:00,74.4,56.7,29.99,NNE,26,2.0,3.0,54,0.00,,,0.00,88,Wunderground v.1.15,2013-07-01 23:55:00,
2013-07-01 19:00:00,74.2,56.5,29.99,NE,43,2.0,2.0,54,0.00,,,0.00,81,Wunderground v.1.15,2013-07-02 00:00:00,
2013-07-01 19:05:00,74.0,56.8,29.99,NE,46,2.0,2.0,55,0.00,,,0.00,83,Wunderground v.1.15,2013-07-02 00:05:00,
2013-07-01 19:10:00,73.8,56.6,29.99,NE,50,2.0,2.0,55,0.00,,,0.00,76,Wunderground v.1.15,2013-07-02 00:10:00,
2013-07-01 19:15:00,73.6,56.9,29.99,NE,49,2.0,2.0,56,0.00,,,0.00,74,Wunderground v.1.15,2013-07-02 00:15:00,
2013-07-01 19:25:00,73.2,57.5,30.00,NE,46,1.0,3.0,58,0.00,,,0.00,67,Wunderground v.1.15,2013-07-02 00:25:00,
2013-07-01 19:30:00,73.0,56.9,30.00,NE,44,1.0,1.0,57,0.00,,,0.00,67,Wunderground v.1.15,2013-07-02 00:30:00,
2013-07-01 19:35:00,72.7,56.6,30.00,NE,44,1.0,5.0,57,0.00,,,0.00,63,Wunderground v.1.15,2013-07-02 00:35:00,
2013-07-01 19:40:00,72.5,56.4,30.00,NE,47,2.0,2.0,57,0.00,,,0.00,60,Wunderground v.1.15,2013-07-02 00:40:00,
2013-07-01 19:45:00,72.4,55.8,30.00,NNE,31,2.0,2.0,56,0.00,,,0.00,54,Wunderground v.1.15,2013-07-02 00:45:00,
2013-07-01 19:55:00,72.1,56.0,30.00,NE,40,2.0,4.0,57,0.00,,,0.00,40,Wunderground v.1.15,2013-07-02 00:55:00,
2013-07-01 20:00:00,71.8,56.2,30.00,NE,40,2.0,2.0,58,0.00,,,0.00,37,Wunderground v.1.15,2013-07-02 01:00:00,
2013-07-01 20:05:00,71.7,56.1,30.00,NE,40,2.0,2.0,58,0.00,,,0.00,33,Wunderground v.1.15,2013-07-02 01:05:00,
2013-07-01 20:14:00,71.3,56.2,30.00,NE,40,1.0,1.0,59,0.00,,,0.00,23,Wunderground v.1.15,2013-07-02 01:14:00,
2013-07-01 20:20:00,71.0,55.9,30.01,NE,41,1.0,1.0,59,0.00,,,0.00,19,Wunderground v.1.15,2013-07-02 01:20:00,
2013-07-01 20:25:00,70.8,55.3,30.01,NE,41,2.0,2.0,58,0.00,,,0.00,12,Wunderground v.1.15,2013-07-02 01:25:00,
2013-07-01 20:30:00,70.8,55.3,30.01,NE,41,2.0,2.0,58,0.00,,,0.00,7,Wunderground v.1.15,2013-07-02 01:30:00,
2013-07-01 20:35:00,70.6,55.1,30.01,NNE,15,2.0,2.0,58,0.00,,,0.00,5,Wunderground v.1.15,2013-07-02 01:35:00,
2013-07-01 20:40:00,70.5,54.5,30.01,NNE,24,2.0,2.0,57,0.00,,,0.00,0,Wunderground v.1.15,2013-07-02 01:40:00,
2013-07-01 20:45:00,70.4,54.4,30.02,NNE,30,2.0,4.0,57,0.00,,,0.00,0,Wunderground v.1.15,2013-07-02 01:45:00,
2013-07-01 20:50:00,70.3,53.9,30.02,NE,46,2.0,3.0,56,0.00,,,0.00,0,Wunderground v.1.15,2013-07-02 01:50:00,
2013-07-01 21:00:00,70.1,53.7,30.02,NE,46,3.0,3.0,56,0.00,,,0.00,0,Wunderground v.1.15,2013-07-02 02:00:00,
2013-07-01 21:10:00,69.9,53.0,30.02,North,11,3.0,3.0,55,0.00,,,0.00,0,Wunderground v.1.15,2013-07-02 02:10:00,
2013-07-01 21:20:00,69.7,52.8,30.02,NNE,20,3.0,4.0,55,0.00,,,0.00,0,Wunderground v.1.15,2013-07-02 02:20:00,
2013-07-01 21:25:00,69.5,52.6,30.02,NNE,21,3.0,4.0,55,0.00,,,0.00,0,Wunderground v.1.15,2013-07-02 02:25:00,
2013-07-01 21:30:00,69.2,52.8,30.02,NNE,22,2.0,2.0,56,0.00,,,0.00,0,Wunderground v.1.15,2013-07-02 02:30:00,
2013-07-01 21:35:00,69.0,53.1,30.02,NNE,24,2.0,2.0,57,0.00,,,0.00,0,Wunderground v.1.15,2013-07-02 02:35:00,
2013-07-01 21:40:00,68.7,52.8,30.02,NE,36,2.0,3.0,57,0.00,,,0.00,0,Wunderground v.1.15,2013-07-02 02:40:00,
2013-07-01 21:45:00,68.6,52.8,30.03,NE,35,2.0,3.0,57,0.00,,,0.00,0,Wunderground v.1.15,2013-07-02 02:45:00,
2013-07-01 21:50:00,68.5,53.1,30.03,NE,35,1.0,1.0,58,0.00,,,0.00,0,Wunderground v.1.15,2013-07-02 02:50:00,
2013-07-01 21:55:00,68.2,53.3,30.03,NE,35,1.0,1.0,59,0.00,,,0.00,0,Wunderground v.1.15,2013-07-02 02:55:00,
2013-07-01 22:05:00,67.7,53.8,30.03,NE,35,1.0,1.0,61,0.00,,,0.00,0,Wunderground v.1.15,2013-07-02 03:05:00,
2013-07-01 22:10:00,67.4,53.5,30.03,NE,35,1.0,1.0,61,0.00,,,0.00,0,Wunderground v.1.15,2013-07-02 03:10:00,
2013-07-01 22:15:00,67.1,53.6,30.03,NE,35,1.0,2.0,62,0.00,,,0.00,0,Wunderground v.1.15,2013-07-02 03:15:00,
2013-07-01 22:20:00,66.8,53.8,30.03,NE,35,1.0,1.0,63,0.00,,,0.00,0,Wunderground v.1.15,2013-07-02 03:20:00,
2013-07-01 22:25:00,66.5,53.9,30.03,NE,35,1.0,1.0,64,0.00,,,0.00,0,Wunderground v.1.15,2013-07-02 03:25:00,
2013-07-01 22:30:00,66.2,53.7,30.03,NE,35,0.0,0.0,64,0.00,,,0.00,0,Wunderground v.1.15,2013-07-02 03:30:00,
2013-07-01 22:40:00,65.7,54.0,30.02,NE,35,1.0,1.0,66,0.00,,,0.00,0,Wunderground v.1.15,2013-07-02 03:40:00,
2013-07-01 22:45:00,65.4,53.7,30.02,NE,35,1.0,3.0,66,0.00,,,0.00,0,Wunderground v.1.15,2013-07-02 03:45:00,
2013-07-01 22:50:00,65.2,54.0,30.02,NE,35,1.0,2.0,67,0.00,,,0.00,0,Wunderground v.1.15,2013-07-02 03:50:00,
2013-07-01 22:55:00,65.2,54.0,30.02,NE,35,1.0,3.0,67,0.00,,,0.00,0,Wunderground v.1.15,2013-07-02 03:55:00,
2013-07-01 23:00:00,65.2,54.0,30.02,NE,35,1.0,4.0,67,0.00,,,0.00,0,Wunderground v.1.15,2013-07-02 04:00:00,
2013-07-01 23:05:00,65.2,54.0,30.02,NE,34,1.0,4.0,67,0.00,,,0.00,0,Wunderground v.1.15,2013-07-02 04:05:00,
2013-07-01 23:10:00,65.2,54.4,30.02,NE,34,1.0,1.0,68,0.00,,,0.00,0,Wunderground v.1.15,2013-07-02 04:10:00,
2013-07-01 23:15:00,65.1,54.3,30.02,NE,34,1.0,1.0,68,0.00,,,0.00,0,Wunderground v.1.15,2013-07-02 04:15:00,
2013-07-01 23:20:00,65.0,54.2,30.02,NE,34,0.0,1.0,68,0.00,,,0.00,0,Wunderground v.1.15,2013-07-02 04:20:00,
2013-07-01 23:25:00,64.9,54.1,30.02,NE,34,1.0,2.0,68,0.00,,,0.00,0,Wunderground v.1.15,2013-07-02 04:25:00,
2013-07-01 23:30:00,64.8,54.4,30.03,NE,34,1.0,1.0,69,0.00,,,0.00,0,Wunderground v.1.15,2013-07-02 04:30:00,
2013-07-01 23:35:00,64.7,54.3,30.02,NE,34,1.0,1.0,69,0.00,,,0.00,0,Wunderground v.1.15,2013-07-02 04:35:00,
2013-07-01 23:45:00,64.5,54.5,30.02,NE,34,0.0,3.0,70,0.00,,,0.00,0,Wunderground v.1.15,2013-07-02 04:45:00,
2013-07-01 23:50:00,64.4,54.4,30.03,NE,34,1.0,1.0,70,0.00,,,0.00,0,Wunderground v.1.15,2013-07-02 04:50:00,
2013-07-01 23:55:00,64.2,54.2,30.02,NE,34,1.0,3.0,70,0.00,,,0.00,0,Wunderground v.1.15,2013-07-02 04:55:00,